Location: Arrodets-la-Barthe
(43.0306°N, 0.2829°E)
Time: 00:42:09
(UTC+00:00)

Cosmos 2344 - Pass Details

Date: 07 June 2022
Orbit: 1228 x 3015 km, 63.3° (Epoch: 04 July)

Event Time Altitude Azimuth Distance (km) Brightness Sun altitude
Rises 22:57:03 0° 305° (NW) 4,192 7.1 -22.7°
Reaches altitude 10° 23:00:45 10° 324° (NW) 3,317 6.7 -22.8°
Maximum altitude 23:06:10 19° 8° (N) 2,888 6.2 -23.1°
Drops below altitude 10° 23:12:25 10° 51° (NE) 3,896 6.4 -23.3°
Sets 23:17:20 0° 68° (ENE) 5,206 6.9 -23.5°
